Tracking 27112 objects as of 28-Mar-2023
HD Live streaming from Space Station
objects crossing your sky now

STARLINK-3286

Track STARLINK-3286 now!
10-day predictions
STARLINK-3286 is classified as:


NORAD ID: 50171
Int'l Code: 2021-125R
Perigee: 546.2 km
Apogee: 547.5 km
Inclination: 53.2 °
Period: 95.4 minutes
Semi major axis: 6917 km
RCS: Unknown
Launch date: December 18, 2021
Source: United States (US)
Launch site: AIR FORCE WESTERN TEST RANGE (AFWTR)
Your satellite tracking list
Your tracking list is empty




NASA's NSSDC Master Catalog

Two Line Element Set (TLE):
1 50171U 21125R   23086.19660190  .00019596  00000-0  12458-2 0  9998
2 50171  53.2172  50.6622 0000938 111.1625 248.9467 15.08842663 73782
Source of the keplerian elements: AFSPC